Temp
13 13 14 15 14 15 16 17 20 20 22 25 26 26 24 25 21 19 18 19 17 19 18 18 17 17 17 17 17 18 17 17 17 16 17 16 16 16 16 16 16 16 15 16 16 17 17 16 16
11 12 14 15 14 14 16 19 20 21 23 24 25 24 23 23 22 19 18 18 18 18 18 17 16 17 17 17 17 18 17 16 16 16 16 16 16 16 16 15 15 15 15 16 17 17 17 17 17
12 12 14 14 14 14 16 19 20 23 24 24 24 23 23 23 21 18 18 18 17 17 18 17 16 17 17 17 17 17 16 16 16 16 16 16 16 16 16 16 16 15 15 16 17 17 17 17 16
12 13 13 13 15 16 16 19 20 21 24 24 24 21 21 21 20 18 18 17 17 17 17 17 17 17 17 17 17 16 16 16 16 16 16 16 16 16 16 16 15 13 16 16 16 17 16 16 16
11 13 13 13 14 16 18 20 20 20 21 23 24 21 21 21 19 18 18 17 18 17 17 16 16 17 17 17 16 16 16 16 16 16 16 15 16 16 16 14 13 15 16 16 16 16 16 16 16
12 13 12 12 14 16 18 19 19 20 21 22 23 22 22 21 21 19 18 17 16 16 17 17 16 16 16 16 16 16 16 16 16 16 16 15 15 15 15 13 14 13 15 16 16 16 16 16 16
10 11 12 13 14 16 18 19 19 19 20 21 22 21 22 21 20 20 18 17 16 17 16 16 16 16 16 16 16 15 16 16 15 15 15 15 15 14 13 13 13 13 16 16 16 16 16 16 16
11 10 10 12 13 14 17 18 19 19 19 20 21 20 20 21 19 19 19 18 17 17 15 15 15 16 15 16 15 15 16 16 15 15 15 15 15 15 13 13 13 13 15 15 16 16 16 16 16
10 9 9 11 12 14 16 16 17 18 18 20 20 21 21 19 18 19 17 17 17 17 16 14 14 14 14 15 16 15 15 15 15 14 15 14 15 13 13 14 13 13 14 15 15 15 15 15 16
9 8 9 12 13 13 15 15 16 16 17 18 20 20 20 19 18 17 17 16 17 17 17 14 12 13 13 14 15 14 15 14 14 14 14 15 15 13 13 13 13 13 13 15 15 15 15 15 15
9 8 10 11 11 12 13 13 14 15 15 17 18 19 20 19 17 15 16 17 17 16 17 16 15 11 13 11 15 15 14 14 14 14 15 15 14 13 13 13 13 14 16 15 15 15 15 15 14
8 10 10 11 11 11 11 12 12 14 14 15 16 15 17 18 18 17 14 15 15 16 16 14 14 14 13 12 14 15 14 14 14 13 14 13 13 13 14 15 15 15 15 15 15 15 15 15 14
8 9 10 11 10 11 11 11 11 12 13 14 14 15 15 15 14 15 15 16 14 15 14 14 14 13 13 13 14 15 15 14 13 13 14 13 13 13 14 15 15 15 15 15 14 13 13 14 14
8 9 9 10 10 11 11 11 11 11 12 12 13 14 14 13 14 14 14 14 14 14 14 13 14 14 13 13 14 14 14 14 14 14 14 13 13 14 13 13 14 14 14 13 14 14 14 13 13
7 7 8 9 10 10 11 10 10 11 11 12 13 13 13 12 14 14 13 13 13 14 13 13 13 13 12 12 14 14 14 14 14 14 14 13 13 13 13 13 15 15 15 15 15 14 13 14 14
7 7 6 9 10 11 10 8 10 11 12 12 12 13 12 12 14 14 13 14 11 12 14 13 13 14 13 12 13 14 14 14 13 13 13 13 13 14 14 14 15 16 16 15 15 15 14 14 14
7 5 6 8 10 10 10 8 10 11 12 12 12 12 12 12 14 14 14 12 12 12 12 13 13 16 14 12 12 12 13 14 14 13 13 13 14 14 15 15 15 15 15 15 14 14 13 14 14
7 7 9 9 10 7 9 9 10 11 11 11 12 12 12 13 14 14 14 13 12 12 12 13 12 14 12 12 12 13 13 13 13 14 13 13 14 15 15 14 14 14 14 14 13 13 13 13 14
7 7 7 9 11 7 8 9 10 10 7 11 11 11 12 14 14 14 14 14 12 11 12 12 12 12 13 12 14 14 13 14 14 13 13 13 13 13 14 14 14 13 13 14 13 13 13 13 13
6 7 8 10 10 7 9 9 11 10 7 11 12 11 11 12 13 13 12 12 12 11 11 12 12 11 12 13 13 14 14 13 13 13 13 13 13 13 13 13 13 13 13 13 12 13 13 13 13
7 7 9 8 6 9 9 9 10 12 10 11 11 11 11 11 12 12 12 12 12 11 11 11 11 12 13 13 12 12 12 13 13 13 13 13 13 13 13 13 13 13 13 13 13 12 13 13 13
8 10 11 7 7 8 9 8 9 7 7 9 11 10 11 11 10 11 11 11 11 11 11 11 11 11 13 12 12 12 13 13 13 13 13 13 13 13 14 14 13 13 13 13 13 13 13 13 12
8 9 9 9 7 6 8 8 7 6 9 10 9 10 10 9 11 10 10 10 11 11 11 11 11 11 11 12 11 11 12 12 12 12 12 13 13 13 13 13 13 13 14 14 14 14 14 13 12
9 8 10 10 9 9 8 8 7 6 6 8 10 10 9 10 9 10 9 9 10 11 11 10 11 11 13 12 12 12 12 12 12 12 12 12 12 12 13 12 12 13 13 13 13 12 12 12 12
8 7 8 9 9 9 7 8 6 6 7 8 9 9 9 9 9 9 10 10 9 10 10 10 10 10 11 12 12 12 12 12 11 12 11 12 12 13 11 11 11 12 13 13 13 15 11 11 12
7 7 8 9 10 10 9 8 6 7 7 9 8 7 7 8 8 9 9 9 10 10 11 11 11 11 11 11 11 11 12 11 12 12 12 12 12 11 11 12 11 11 11 11 11 15 10 10 10
9 8 10 7 10 9 8 6 6 7 7 8 7 7 7 7 8 9 10 10 10 10 10 10 11 11 11 11 12 12 12 12 12 13 13 11 12 12 12 12 12 12 12 11 11 12 11 10 10
7 10 9 9 10 10 9 8 8 6 8 8 8 7 7 7 8 9 10 10 10 10 10 11 11 11 11 11 11 12 12 12 12 12 13 13 13 13 13 13 13 13 11 11 11 11 10 10 10
9 10 11 11 10 10 9 8 9 8 9 8 7 8 9 9 8 8 9 9 9 9 10 11 11 11 12 12 12 12 12 12 12 12 13 13 13 13 13 13 13 13 11 11 11 11 10 10 10
10 11 12 8 11 9 7 7 11 11 10 10 9 9 8 9 9 9 9 9 9 10 10 11 11 11 11 11 12 12 12 12 12 12 12 13 13 13 13 13 13 12 10 11 11 10 10 10 10
Height
1499 1502 1505 1506 1511 1499 1494 1486 1480 1475 1472 1469 1468 1469 1470 1472 1478 1497 1491 1488 1490 1487 1491 1497 1500 1503 1506 1509 1510 1512 1515 1517 1520 1523 1525 1527 1529 1531 1534 1536 1538 1540 1540 1541 1543 1544 1545 1546 1548
1498 1502 1504 1503 1505 1502 1487 1480 1478 1474 1469 1467 1466 1466 1473 1477 1477 1484 1486 1485 1488 1488 1491 1496 1500 1502 1506 1508 1510 1512 1514 1517 1520 1523 1526 1528 1530 1532 1534 1537 1539 1541 1541 1543 1544 1546 1547 1549 1550
1498 1502 1504 1499 1496 1496 1485 1474 1470 1468 1468 1466 1467 1468 1473 1477 1479 1483 1485 1484 1489 1490 1492 1495 1500 1502 1505 1508 1510 1512 1514 1517 1520 1523 1526 1528 1530 1533 1535 1537 1540 1543 1543 1544 1546 1548 1549 1550 1552
1500 1501 1502 1492 1485 1481 1482 1475 1469 1468 1466 1465 1465 1472 1474 1476 1480 1483 1487 1487 1488 1489 1491 1495 1499 1502 1504 1508 1510 1512 1515 1517 1520 1523 1526 1528 1530 1532 1535 1538 1541 1543 1544 1546 1548 1549 1551 1552 1553
1500 1498 1494 1488 1486 1479 1473 1473 1473 1468 1466 1464 1465 1468 1472 1476 1479 1482 1487 1488 1488 1488 1487 1495 1499 1502 1504 1507 1510 1512 1515 1517 1521 1523 1527 1529 1530 1532 1535 1538 1540 1543 1545 1547 1549 1551 1552 1554 1555
1499 1495 1491 1485 1482 1477 1475 1473 1471 1469 1465 1464 1463 1466 1470 1472 1477 1480 1484 1489 1490 1489 1484 1494 1499 1502 1504 1506 1510 1512 1514 1517 1520 1522 1526 1529 1531 1533 1534 1537 1540 1544 1546 1548 1550 1553 1554 1555 1556
1498 1493 1486 1483 1480 1474 1470 1470 1469 1469 1466 1464 1466 1466 1470 1468 1472 1474 1479 1485 1489 1487 1490 1491 1498 1501 1503 1506 1509 1512 1514 1516 1519 1523 1525 1528 1530 1533 1535 1538 1542 1544 1546 1549 1551 1553 1555 1556 1557
1496 1493 1486 1482 1481 1474 1472 1468 1467 1467 1465 1465 1464 1463 1467 1467 1472 1474 1474 1478 1486 1486 1485 1487 1491 1500 1503 1505 1509 1511 1514 1516 1519 1522 1525 1527 1529 1532 1535 1539 1543 1545 1547 1549 1552 1554 1556 1557 1558
1493 1493 1481 1481 1479 1474 1474 1470 1467 1465 1464 1463 1462 1462 1466 1465 1467 1469 1478 1476 1481 1482 1484 1477 1484 1492 1506 1507 1508 1511 1513 1516 1519 1521 1524 1525 1528 1531 1535 1538 1543 1546 1547 1550 1552 1554 1556 1558 1559
1489 1484 1479 1477 1474 1471 1471 1470 1469 1468 1462 1460 1460 1460 1463 1463 1463 1471 1473 1477 1476 1478 1480 1477 1482 1491 1498 1509 1508 1511 1511 1514 1517 1519 1522 1524 1526 1530 1534 1538 1541 1544 1547 1549 1552 1555 1556 1558 1559
1483 1476 1478 1477 1475 1473 1470 1468 1468 1466 1460 1460 1461 1461 1459 1461 1461 1464 1470 1472 1474 1477 1475 1473 1470 1480 1495 1502 1508 1508 1506 1512 1515 1517 1520 1522 1525 1528 1532 1536 1540 1542 1545 1549 1551 1554 1556 1557 1558
1480 1474 1474 1473 1474 1472 1469 1469 1466 1462 1460 1460 1457 1460 1458 1457 1454 1459 1465 1472 1470 1472 1473 1466 1472 1481 1486 1495 1501 1503 1506 1508 1512 1515 1519 1523 1524 1527 1530 1535 1538 1542 1545 1548 1550 1553 1555 1556 1558
1477 1473 1471 1469 1470 1469 1468 1465 1464 1460 1458 1456 1456 1456 1458 1457 1455 1459 1460 1465 1468 1471 1473 1474 1472 1482 1485 1489 1495 1498 1503 1508 1513 1515 1518 1522 1524 1527 1530 1534 1538 1542 1545 1546 1549 1551 1554 1555 1557
1474 1471 1468 1466 1465 1463 1463 1460 1461 1457 1458 1456 1455 1452 1454 1460 1455 1456 1461 1461 1464 1468 1467 1459 1454 1470 1479 1478 1486 1494 1500 1506 1510 1514 1518 1521 1523 1526 1530 1532 1536 1540 1543 1546 1548 1551 1552 1554 1556
1474 1470 1467 1462 1458 1457 1460 1451 1452 1454 1455 1453 1451 1451 1449 1450 1450 1455 1459 1460 1464 1466 1466 1459 1454 1473 1474 1472 1484 1495 1499 1503 1508 1513 1516 1519 1522 1525 1528 1531 1535 1538 1541 1544 1547 1549 1551 1553 1555
1471 1470 1468 1451 1450 1451 1458 1442 1444 1449 1449 1447 1448 1447 1447 1451 1452 1449 1457 1453 1459 1463 1467 1464 1462 1463 1476 1483 1490 1498 1499 1500 1505 1510 1513 1517 1521 1523 1526 1529 1533 1537 1540 1542 1544 1546 1548 1550 1553
1467 1468 1462 1452 1445 1446 1446 1437 1438 1442 1442 1440 1442 1444 1445 1448 1447 1446 1451 1450 1457 1463 1464 1466 1463 1459 1476 1480 1484 1489 1496 1500 1503 1508 1511 1515 1519 1522 1525 1528 1531 1535 1538 1540 1543 1544 1547 1547 1549
1461 1462 1451 1444 1440 1444 1439 1432 1432 1436 1438 1436 1437 1441 1439 1440 1441 1444 1447 1447 1452 1457 1463 1462 1460 1459 1469 1474 1486 1490 1492 1496 1501 1506 1510 1514 1516 1519 1524 1527 1529 1533 1536 1538 1540 1542 1544 1547 1550
1464 1461 1453 1438 1432 1442 1433 1429 1429 1435 1435 1432 1433 1441 1435 1435 1439 1440 1443 1445 1450 1453 1455 1457 1456 1457 1469 1476 1484 1489 1493 1496 1499 1504 1508 1512 1515 1517 1521 1525 1527 1530 1534 1536 1537 1540 1542 1544 1545
1463 1457 1448 1434 1432 1438 1429 1427 1426 1429 1433 1429 1429 1432 1432 1434 1432 1436 1438 1441 1445 1447 1453 1453 1456 1464 1472 1477 1484 1489 1491 1495 1499 1502 1507 1509 1513 1516 1519 1522 1525 1527 1531 1533 1534 1537 1539 1540 1543
1454 1451 1443 1442 1443 1431 1431 1429 1424 1421 1424 1424 1426 1428 1430 1430 1430 1433 1435 1439 1442 1446 1450 1453 1459 1464 1471 1476 1480 1485 1490 1493 1496 1501 1504 1507 1510 1514 1517 1519 1522 1525 1527 1530 1532 1533 1534 1537 1540
1449 1437 1431 1440 1443 1430 1426 1429 1425 1430 1429 1425 1422 1422 1426 1427 1430 1430 1435 1437 1440 1439 1448 1454 1461 1465 1470 1476 1478 1485 1491 1493 1498 1499 1501 1503 1508 1511 1513 1517 1518 1521 1523 1523 1526 1528 1529 1533 1533
1443 1436 1435 1433 1435 1440 1426 1427 1429 1429 1422 1417 1419 1422 1425 1426 1424 1433 1436 1438 1435 1439 1447 1452 1458 1466 1473 1477 1480 1486 1490 1493 1496 1498 1500 1505 1507 1510 1510 1514 1517 1519 1519 1519 1520 1521 1522 1525 1528
1442 1437 1428 1426 1428 1421 1424 1425 1425 1430 1429 1422 1420 1423 1426 1425 1434 1435 1440 1438 1429 1440 1448 1455 1461 1465 1469 1476 1480 1485 1488 1491 1494 1495 1499 1501 1503 1506 1507 1513 1513 1513 1513 1513 1514 1516 1521 1521 1519
1443 1442 1435 1427 1420 1420 1428 1425 1432 1431 1425 1420 1420 1423 1428 1431 1435 1441 1442 1442 1443 1445 1452 1457 1466 1472 1475 1477 1480 1483 1485 1489 1491 1492 1495 1497 1499 1499 1505 1507 1507 1508 1509 1510 1510 1511 1515 1518 1518
1443 1442 1436 1424 1421 1418 1421 1427 1434 1430 1427 1423 1426 1427 1431 1434 1441 1443 1444 1446 1448 1452 1457 1464 1467 1470 1472 1475 1474 1478 1481 1482 1484 1487 1490 1491 1493 1492 1499 1500 1499 1502 1502 1504 1508 1504 1512 1517 1516
1438 1436 1426 1434 1418 1426 1433 1441 1440 1439 1434 1432 1434 1437 1440 1443 1446 1448 1448 1452 1456 1459 1465 1467 1468 1470 1472 1473 1473 1475 1478 1478 1480 1481 1484 1487 1490 1491 1493 1493 1492 1494 1497 1499 1503 1503 1506 1509 1512
1440 1432 1432 1427 1424 1426 1434 1438 1442 1445 1438 1440 1442 1447 1449 1448 1450 1451 1453 1454 1457 1462 1463 1463 1466 1468 1469 1471 1472 1475 1475 1474 1477 1478 1479 1482 1485 1486 1487 1489 1488 1488 1490 1494 1496 1499 1502 1503 1505
1437 1431 1426 1421 1422 1428 1436 1453 1449 1449 1446 1447 1449 1451 1452 1454 1454 1456 1457 1457 1465 1463 1464 1465 1468 1468 1467 1467 1470 1471 1472 1473 1476 1476 1478 1479 1481 1482 1482 1482 1483 1482 1485 1488 1492 1493 1496 1499 1500
1436 1430 1424 1438 1428 1429 1447 1463 1452 1451 1452 1452 1454 1456 1457 1458 1459 1460 1462 1464 1463 1466 1468 1468 1467 1468 1470 1470 1470 1472 1474 1473 1474 1476 1476 1476 1476 1477 1477 1478 1477 1479 1480 1484 1486 1489 1491 1493 1494
Wind_Speed
8 1 4 8 4 5 12 12 14 18 14 30 25 9 2 8 4 4 2 9 6 13 12 21 20 18 16 15 14 14 17 19 19 18 17 15 16 16 17 17 17 20 14 16 16 18 19 19 19
4 2 6 8 6 11 12 14 18 16 25 29 13 8 4 1 8 8 8 7 12 16 11 21 20 19 17 15 13 14 17 19 21 19 17 17 18 18 18 18 18 20 14 17 18 19 18 17 17
5 3 6 4 9 15 10 12 12 18 24 28 9 7 7 3 5 6 1 6 13 16 13 20 19 17 17 15 14 16 17 20 21 20 20 19 19 19 19 18 19 21 17 20 18 18 17 17 16
3 5 9 7 15 18 22 16 21 20 22 25 21 5 3 6 5 6 3 9 17 18 16 17 19 17 15 14 15 17 19 21 22 22 22 22 20 20 18 20 23 21 20 20 18 18 17 16 15
7 7 8 12 17 18 14 21 31 21 25 21 25 10 9 15 8 5 3 9 16 20 18 17 17 17 15 15 15 17 19 23 23 23 23 22 20 20 20 23 22 21 20 19 18 17 15 14 14
7 5 8 14 18 17 17 29 28 23 24 28 16 18 17 18 20 18 14 12 15 19 20 19 17 17 15 15 16 18 20 26 25 25 24 23 19 22 23 24 22 19 22 19 17 15 13 12 11
5 8 13 16 16 17 16 27 18 19 25 25 26 11 24 18 22 21 19 14 21 20 16 18 21 18 15 15 17 17 22 26 26 25 26 23 20 22 23 23 21 18 21 18 16 13 11 10 9
9 5 14 16 14 21 19 27 28 22 21 35 32 12 13 11 11 18 23 23 23 25 27 26 20 20 17 17 19 16 24 26 25 25 25 22 21 23 24 23 20 17 19 17 15 12 10 8 7
10 6 12 15 17 18 23 20 31 31 31 28 33 29 19 8 13 19 24 27 27 28 25 20 14 16 14 19 23 18 23 26 27 28 24 23 23 25 24 24 21 18 18 17 14 11 8 5 4
9 9 13 12 15 16 20 21 23 26 29 27 27 33 24 15 11 18 23 26 30 32 35 32 32 22 7 17 27 25 26 28 30 29 23 24 25 27 25 24 22 18 17 17 13 9 6 4 4
17 18 14 20 27 26 20 25 31 24 20 26 23 25 33 20 15 13 26 31 30 26 27 50 51 31 29 28 30 34 28 30 32 28 22 19 25 25 23 25 23 21 18 15 11 8 6 4 2
16 23 23 22 23 23 19 28 26 30 27 30 28 26 25 27 25 29 21 25 28 32 24 22 45 47 39 26 36 40 34 27 21 21 24 20 23 24 24 22 22 17 15 13 10 8 7 5 8
15 16 24 24 24 27 26 24 24 31 29 31 33 27 22 26 2 14 24 24 26 25 23 19 28 46 29 31 38 37 34 26 26 20 26 22 23 24 19 19 19 17 13 10 7 6 7 8 5
12 21 21 22 27 27 21 22 25 31 31 32 34 31 25 22 20 9 22 26 25 26 18 13 16 33 28 30 35 26 28 26 21 22 24 26 22 24 18 16 17 15 15 16 13 10 8 5 6
18 17 19 22 19 20 22 23 21 27 33 32 32 31 28 25 22 21 21 25 29 27 19 19 15 16 11 30 30 30 29 28 31 31 30 27 25 27 26 23 21 19 16 14 12 10 7 7 5
7 13 13 9 14 21 18 25 18 26 29 33 31 29 23 28 19 21 20 16 21 23 22 27 25 26 25 19 29 33 28 30 28 34 31 26 24 25 24 21 18 15 13 12 11 12 12 13 12
9 7 12 14 14 13 17 23 18 28 27 28 32 21 18 30 26 22 22 26 23 18 23 21 27 24 27 26 18 24 29 29 29 24 26 26 24 23 21 19 16 14 12 12 11 10 12 10 10
9 8 13 16 4 12 15 20 17 18 23 27 17 17 21 29 27 22 18 27 19 24 26 23 16 18 32 24 21 20 20 22 25 24 23 24 23 22 20 19 15 13 13 12 11 11 12 12 8
18 18 18 18 11 5 16 14 16 5 22 21 21 20 16 22 22 19 19 23 26 23 25 27 24 36 35 28 25 22 19 26 23 22 21 21 19 19 21 19 17 14 12 10 10 9 12 11 12
17 18 19 15 9 8 8 14 12 15 23 20 18 13 13 12 16 17 16 22 23 21 24 26 37 37 34 29 24 20 21 20 19 21 20 20 20 18 16 18 16 15 15 14 12 13 13 15 15
11 16 15 8 10 7 6 12 16 6 7 9 12 14 12 9 15 15 9 24 24 24 32 26 31 29 33 26 12 16 15 17 19 18 20 19 18 18 18 18 17 17 16 14 17 17 19 19 19
11 6 14 5 2 4 12 2 3 6 12 12 15 16 12 18 18 11 4 11 33 25 30 30 33 22 31 16 14 14 15 15 15 18 20 20 17 16 16 19 16 17 16 16 18 20 23 22 18
7 11 14 9 8 3 7 3 1 5 5 9 7 15 13 20 15 11 5 8 24 30 26 24 25 21 21 17 13 14 12 11 12 13 13 15 13 14 15 17 16 17 16 17 20 20 25 26 21
10 9 10 9 7 3 3 2 2 4 4 5 9 16 22 24 16 10 9 12 18 29 26 17 21 18 16 13 11 14 13 12 11 13 16 14 16 17 17 18 17 14 12 11 15 17 20 21 12
6 5 3 3 1 2 1 1 1 7 5 2 11 17 24 22 16 14 22 19 20 25 20 20 17 13 13 15 14 18 18 19 20 20 20 18 25 23 22 21 19 21 18 13 6 5 13 20 22
3 3 3 4 3 2 3 6 6 9 14 21 23 23 27 26 16 15 14 14 20 23 18 13 12 10 10 6 14 22 26 24 24 27 24 20 23 28 26 25 28 24 19 17 21 24 24 26 24
2 4 5 3 5 1 4 1 11 11 9 19 20 21 24 21 17 16 16 14 12 11 10 10 10 9 7 8 8 9 11 15 17 14 21 29 33 23 21 21 24 29 30 25 26 25 23 24 21
6 8 4 1 5 4 3 5 4 8 10 15 14 18 17 19 18 15 17 14 12 9 7 5 5 5 6 8 8 7 8 7 8 14 16 16 17 21 24 25 25 25 30 35 32 30 28 27 27
2 4 3 2 3 2 3 3 5 10 10 14 12 19 20 22 22 21 21 18 14 13 11 9 7 5 5 4 5 6 8 8 10 11 12 15 17 20 21 21 20 19 19 26 29 31 28 28 25
4 6 5 1 5 6 5 4 7 7 9 17 17 21 24 23 23 21 19 18 17 15 14 13 12 9 7 5 4 3 4 6 8 10 13 15 15 17 17 19 19 19 19 27 32 31 31 28 28
Wind_Direction
206 251 313 282 240 228 243 234 246 273 273 242 255 265 3 283 70 173 125 158 144 215 201 195 188 190 188 188 188 193 191 191 191 187 182 173 167 161 150 145 143 137 145 139 139 127 122 119 115
154 174 228 256 238 238 241 232 248 240 265 276 280 165 94 300 89 128 178 131 202 196 193 201 194 195 194 196 194 191 186 185 189 186 184 179 173 166 158 153 153 146 153 145 136 127 123 120 117
227 227 245 210 239 234 252 252 231 241 255 259 259 186 188 154 100 116 147 140 182 191 200 205 192 189 193 200 195 186 183 181 183 184 185 179 174 170 168 165 156 151 159 147 137 128 125 121 116
253 232 260 256 238 229 252 270 283 291 253 250 244 134 129 172 83 106 120 153 191 186 204 209 196 194 195 202 194 187 184 181 180 182 182 178 175 170 170 163 155 165 153 143 138 131 127 122 117
241 261 235 231 245 262 262 240 246 268 278 268 229 221 171 201 172 168 200 190 194 181 191 201 205 197 197 201 194 188 188 182 181 181 181 178 178 172 168 155 156 151 150 145 140 135 131 126 121
263 229 246 235 244 248 247 261 277 284 280 273 247 256 227 215 222 212 222 181 193 188 184 201 207 202 198 200 193 194 186 180 182 181 181 178 177 171 165 157 154 153 154 151 146 141 136 132 127
257 258 245 255 262 265 250 244 241 258 275 274 268 237 259 206 211 219 218 189 198 195 191 196 206 200 203 197 196 199 186 186 182 181 178 178 177 165 160 158 154 159 157 156 153 149 145 139 131
247 259 257 256 262 264 272 284 289 285 252 266 269 263 256 243 212 217 221 214 211 211 184 171 177 200 205 195 199 202 190 186 183 180 181 181 186 168 166 157 158 166 158 160 159 156 152 143 137
246 247 246 247 248 267 275 285 285 286 285 275 261 267 267 266 234 235 230 211 210 212 196 170 150 152 217 200 200 199 191 188 182 178 181 183 184 164 165 163 166 169 165 166 168 165 160 154 144
208 234 253 262 275 283 289 283 279 279 280 275 267 266 260 265 236 236 232 239 225 225 221 220 268 277 202 225 204 201 190 187 185 183 189 196 177 169 172 169 171 170 173 173 174 176 174 169 150
229 245 275 283 291 291 289 283 284 281 273 271 275 269 263 268 243 234 247 249 251 241 259 259 263 269 276 289 215 205 186 187 184 184 193 176 172 170 176 179 177 179 178 180 185 190 185 170 118
262 266 267 274 277 283 285 288 285 275 274 284 286 300 297 265 234 237 239 247 241 239 252 270 267 261 266 249 209 202 206 177 181 182 161 170 170 176 182 189 186 183 183 188 193 191 201 204 198
270 274 274 268 260 265 270 270 273 276 285 272 291 285 298 289 304 250 240 244 241 240 241 264 227 254 275 215 197 196 197 193 190 194 157 183 188 184 187 183 183 180 180 189 204 187 216 239 219
282 293 291 280 278 256 255 260 260 265 272 273 280 280 282 283 268 293 250 248 233 226 234 257 254 253 262 212 173 179 176 179 187 167 168 183 194 179 175 180 180 179 186 189 212 206 204 236 217
295 278 276 268 262 254 268 255 247 254 259 262 264 272 268 289 284 248 257 234 234 221 216 193 205 221 234 171 168 169 179 181 179 179 181 183 190 179 182 187 189 194 199 204 207 205 211 195 229
278 260 269 257 250 245 232 261 247 250 245 250 260 263 261 277 260 237 240 235 239 226 219 193 159 184 179 182 187 178 170 178 184 191 187 187 188 190 186 191 193 197 204 213 218 206 210 207 215
238 261 242 268 238 266 224 253 247 246 251 242 248 260 251 264 267 219 233 213 217 225 191 204 200 185 215 194 203 182 190 186 188 179 188 186 188 191 190 194 193 199 205 203 208 202 215 212 196
302 297 288 283 306 320 245 243 249 255 252 251 216 260 245 256 252 218 234 213 226 237 210 196 204 206 181 177 206 208 197 184 182 188 194 187 191 194 192 194 196 206 208 210 207 206 220 210 221
270 282 287 286 289 250 244 243 241 247 324 253 171 234 254 247 232 218 229 213 222 233 225 218 197 167 180 179 188 192 201 203 197 185 195 195 197 199 194 197 199 204 214 216 217 221 215 224 201
272 274 280 283 323 182 267 238 247 202 207 231 225 230 262 237 220 223 219 200 206 217 208 201 178 179 183 183 189 192 187 189 195 198 199 200 203 205 208 205 203 207 212 207 207 218 222 221 223
258 259 272 301 326 248 248 250 249 202 1 296 236 239 254 269 172 160 180 224 225 241 204 192 184 179 181 190 191 191 193 193 190 193 189 194 195 202 205 213 213 217 223 224 224 215 220 226 229
271 292 288 225 288 268 198 249 91 336 285 259 224 233 248 171 155 139 280 239 221 193 185 197 186 181 184 195 188 191 199 202 213 199 193 197 200 211 220 226 222 232 236 237 239 243 234 228 222
259 321 305 233 257 279 209 231 108 323 254 197 189 207 161 139 126 132 134 10 177 182 176 177 183 186 181 178 170 189 195 205 220 209 207 209 199 211 220 232 233 242 251 259 261 249 243 229 228
305 297 300 285 265 206 18 321 56 354 320 276 143 133 128 110 124 129 156 92 75 166 170 166 181 192 196 198 211 204 214 221 233 230 231 225 228 229 229 233 229 230 247 259 260 250 245 232 225
252 292 269 238 259 5 354 141 245 353 353 158 118 91 112 119 122 154 123 100 99 108 149 129 165 186 204 207 216 222 233 235 232 237 232 249 256 239 242 250 250 246 256 269 242 289 203 224 237
352 214 290 332 353 31 20 7 17 13 36 97 89 92 102 122 125 117 117 130 123 116 136 183 227 235 245 232 235 243 248 245 247 238 237 217 254 246 247 256 256 250 252 244 234 237 240 244 245
188 235 302 261 210 36 17 53 50 51 49 80 87 93 104 105 106 119 116 115 125 146 185 211 223 227 222 226 227 224 239 256 262 247 238 244 239 251 259 251 250 247 248 238 238 236 249 241 250
244 318 346 241 354 51 63 43 56 28 67 78 75 82 95 90 88 92 99 101 101 116 130 149 171 198 202 204 218 232 233 239 243 251 254 255 252 246 251 254 252 253 247 235 237 246 249 245 247
258 328 265 272 166 47 71 34 47 67 66 85 89 88 88 95 88 87 87 88 95 100 101 104 115 119 130 161 196 222 237 244 250 255 249 246 244 248 254 256 257 254 246 240 245 250 239 240 238
280 300 317 24 347 59 94 60 115 90 96 96 93 92 82 82 86 85 89 91 87 86 84 76 71 64 61 47 10 330 273 262 257 255 260 263 265 262 261 261 256 250 238 236 241 239 239 237 236